Change the Weather History Date:

Monday, October 15, 2012

  Actual Average Record
Temperature  
Mean Temperature 44 °F -  
Max Temperature 52 °F 63 °F 83 °F (1962)
Min Temperature 37 °F 46 °F 30 °F (1969)
Degree Days  
Heating Degree Days 20    
Moisture  
Dew Point 44 °F    
Average Humidity 84    
Maximum Humidity 93    
Minimum Humidity 63    
Precipitation  
Precipitation 0.01 in - - ()
Sea Level Pressure  
Sea Level Pressure 29.83 in    
Wind  
Wind Speed 12 mph (West)    
Max Wind Speed 20 mph    
Max Gust Speed 25 mph    
Visibility 9 miles    
Events Rain    
Averages and records for this station are not official NWS values.
T = Trace of Precipitation, MM = Missing Value Source: NWS Daily Summary

Daily Weather History Graph

Daily Weather History Graph

Search for Another Location

Airport or City:

Trip Planner

Search our weather history database for the weather conditions in past years. The results will help you decide how hot, cold, wet, or windy it might be!

Date:

Astronomy

Oct. 15, 2012 Rise Set
Actual Time 7:55 AM EDT 7:01 PM EDT
Civil Twilight 7:27 AM EDT 7:29 PM EDT
Nautical Twilight 6:55 AM EDT 8:01 PM EDT
Astronomical Twilight 6:23 AM EDT 8:33 PM EDT
Moon 8:06 AM EDT (10/15) 6:59 PM EDT (10/15)
Length of Visible Light 12h 01m
Length of Day
11h 05m
New Moon, 0% of the Moon is Illuminated
Oct 15
New Moon
Oct 21
First Quarter
Oct 29
Full
Nov 6
Last Quarter
Nov 13
New

Hourly Weather History & Observations

Time (EDT) Temp. Windchill Dew Point Humidity Pressure Visibility Wind Dir Wind Speed Gust Speed Precip Events Conditions
12:02 AM 51.8 °F - 48.2 °F 88% 29.71 in 6.0 mi West 17.3 mph 25.3 mph 0.00 in Rain Light Rain
12:53 AM 51.1 °F - 48.0 °F 89% 29.72 in 10.0 mi West 13.8 mph - 0.00 in Rain Light Rain
1:16 AM 51.8 °F - 46.4 °F 82% 29.73 in 10.0 mi West 15.0 mph - 0.00 in   Overcast
1:23 AM 51.8 °F - 46.4 °F 82% 29.74 in 10.0 mi West 13.8 mph - 0.00 in   Overcast
1:53 AM 51.1 °F - 46.0 °F 83% 29.74 in 10.0 mi West 19.6 mph 24.2 mph 0.00 in   Overcast
2:53 AM 50.0 °F - 46.0 °F 86% 29.75 in 10.0 mi West 13.8 mph 19.6 mph 0.00 in   Overcast
3:53 AM 50.0 °F - 46.0 °F 86% 29.75 in 10.0 mi West 13.8 mph - N/A   Overcast
4:20 AM 48.2 °F - 46.4 °F 93% 29.75 in 5.0 mi West 12.7 mph - 0.00 in Rain Light Rain
4:38 AM 48.2 °F - 46.4 °F 93% 29.74 in 3.0 mi West 11.5 mph - 0.00 in   Overcast
4:53 AM 48.9 °F - 46.9 °F 93% 29.75 in 4.0 mi West 12.7 mph - 0.00 in   Overcast
5:53 AM 48.9 °F - 46.0 °F 90% 29.76 in 4.0 mi West 11.5 mph 18.4 mph 0.01 in Rain Light Rain
6:25 AM 48.2 °F - 46.4 °F 93% 29.77 in 5.0 mi West 10.4 mph - 0.00 in   Overcast
6:33 AM 48.2 °F - 46.4 °F 93% 29.77 in 6.0 mi West 11.5 mph - 0.00 in   Overcast
6:53 AM 48.9 °F - 46.0 °F 90% 29.78 in 10.0 mi West 10.4 mph - 0.00 in   Overcast
7:05 AM 48.2 °F - 46.4 °F 93% 29.78 in 9.0 mi West 10.4 mph - N/A   Overcast
7:08 AM 48.2 °F - 46.4 °F 93% 29.78 in 7.0 mi West 11.5 mph - 0.00 in Rain Light Rain
7:16 AM 48.2 °F - 46.4 °F 93% 29.78 in 6.0 mi West 10.4 mph - 0.00 in Rain Light Rain
7:39 AM 48.2 °F - 46.4 °F 93% 29.79 in 10.0 mi West 9.2 mph - 0.00 in   Overcast
7:53 AM 48.9 °F - 46.0 °F 90% 29.79 in 10.0 mi West 8.1 mph - 0.00 in Rain Light Rain
8:39 AM 48.2 °F - 46.4 °F 93% 29.81 in 10.0 mi West 8.1 mph - 0.00 in   Overcast
8:47 AM 48.2 °F - 46.4 °F 93% 29.81 in 10.0 mi West 8.1 mph - 0.00 in   Overcast
8:53 AM 48.9 °F - 46.0 °F 90% 29.82 in 10.0 mi West 8.1 mph - 0.00 in   Overcast
9:53 AM 50.0 °F - 46.0 °F 86% 29.84 in 10.0 mi West 10.4 mph - N/A   Overcast
10:53 AM 50.0 °F - 44.1 °F 80% 29.86 in 10.0 mi WNW 9.2 mph - N/A   Overcast
11:24 AM 50.0 °F - 42.8 °F 76% 29.86 in 10.0 mi WNW 11.5 mph - N/A   Overcast
11:53 AM 50.0 °F - 43.0 °F 77% 29.88 in 10.0 mi WNW 11.5 mph - N/A   Overcast
12:53 PM 50.0 °F - 43.0 °F 77% 29.90 in 10.0 mi WNW 12.7 mph - N/A   Overcast
1:53 PM 50.0 °F - 42.1 °F 74% 29.90 in 10.0 mi West 15.0 mph - N/A   Overcast
2:53 PM 50.0 °F - 41.0 °F 71% 29.91 in 10.0 mi West 11.5 mph - N/A   Overcast
3:16 PM 50.0 °F - 42.8 °F 76% 29.91 in 10.0 mi West 10.4 mph - N/A   Overcast
3:53 PM 51.1 °F - 42.1 °F 71% 29.92 in 10.0 mi West 12.7 mph - N/A   Overcast
4:53 PM 52.0 °F - 41.0 °F 66% 29.92 in 10.0 mi WNW 10.4 mph - N/A   Mostly Cloudy
5:53 PM 51.1 °F - 39.0 °F 63% 29.95 in 10.0 mi WNW 9.2 mph - N/A   Overcast
6:53 PM 48.9 °F - 37.9 °F 66% 29.95 in 10.0 mi NW 6.9 mph - N/A   Mostly Cloudy
7:53 PM 44.1 °F 40.8 °F 36.0 °F 73% 29.96 in 10.0 mi WNW 5.8 mph - N/A   Clear
8:53 PM 43.0 °F 41.3 °F 37.0 °F 80% 29.97 in 10.0 mi WNW 3.5 mph - N/A   Clear
9:53 PM 39.9 °F - 36.0 °F 86% 29.98 in 10.0 mi Calm Calm - N/A   Clear
10:53 PM 37.9 °F - 35.1 °F 89% 29.99 in 10.0 mi Calm Calm - N/A   Clear
11:53 PM 37.9 °F - 36.0 °F 93% 29.99 in 9.0 mi Calm Calm - N/A   Clear